Regional Weather Roundup
Issued by NWS Green Bay, WI

Home | Current Version | Previous Version | Graphics & Text | Print | Product List | Glossary Off
Versions: 1 2 3 4 5 6 7 8 9 10 11 12 13 14 15 16 17 18 19 20 21 22 23 24 25 26 27 28 29 30 31 32 33 34 35 36 37 38 39 40 41 42 43 44 45 46 47 48 49 50

000
ASUS43 KGRB 222311
RWRGRB

NORTH-CENTRAL AND NORTHEAST WISCONSIN REGIONAL WEATHER ROUNDUP
NATIONAL WEATHER SERVICE GREEN BAY WI
600 PM CDT SUN OCT 22 2017

WIZ005-009-010>012-018-019-230000-
NORTH CENTRAL WISCONSIN

CITY           SKY/WX    TMP DP  RH WIND       PRES   REMARKS
IRONWOOD       CLOUDY    51  38  60 S5        29.92R
MANITOWISH WTR CLOUDY    46  42  86 S5        29.93S
ARBOR VITAE    CLOUDY    48  42  81 SW3       29.94S
EAGLE RIVER    NOT AVBL
LAND O LAKES   CLOUDY    47  41  79 CALM      29.95S
RHINELANDER    CLOUDY    48  42  80 SW5       29.97R
PHILLIPS       CLEAR     49  40  71 SW5       29.94R
ANTIGO         CLOUDY    47  46  96 SW6       30.00R
TOMAHAWK       CLOUDY    45  41  86 CALM      29.97R
MERRILL        CLOUDY    49  42  79 SW3       29.99R
$$

WIZ013-073-230000-
NORTHEAST WISCONSIN

CITY           SKY/WX    TMP DP  RH WIND       PRES   REMARKS
IRON MOUNTAIN  CLOUDY    49  46  90 S3        29.95R
MARINETTE      LGT RAIN  51  50  96 S3        29.99R
OCONTO         CLOUDY    49  48  95 W3        30.00R
$$

WIZ017-030-035>037-045-230000-
CENTRAL WISCONSIN

CITY           SKY/WX    TMP DP  RH WIND       PRES   REMARKS
MEDFORD        CLOUDY    48  41  77 S6        29.98R
WAUSAU         CLOUDY    49  43  80 SW5       29.99R
MOSINEE        MOCLDY    46  45  93 S7        30.01R
MARSHFIELD     CLOUDY    48  42  80 S6        29.99R
WISC RAPIDS    CLOUDY    50  46  86 SW3       30.02R
STEVENS POINT  CLOUDY    47  47 100 SW5       30.01R
WAUPACA        CLOUDY    52  50  93 S3        30.01S
SHAWANO        CLOUDY    51  49  91 CALM      30.00R
CLINTONVILLE   CLOUDY    50  48  93 SW5       30.02R
WAUTOMA        CLOUDY   N/A N/A N/A SW5       30.03R
$$

WIZ038-039-048-051-230000-
FOX VALLEY

CITY           SKY/WX    TMP DP  RH WIND       PRES   REMARKS
NWS GREEN BAY  LGT RAIN  50  50 100 W6        30.01R
APPLETON       CLOUDY    48  48 100 CALM      30.00R
OSHKOSH        CLOUDY    50  48  93 W3        30.01R
FOND DU LAC    LGT RAIN  51  47  86 CALM      30.02R
$$

WIZ022-050-052-230000-
EAST CENTRAL WISCONSIN

CITY           SKY/WX    TMP DP  RH WIND       PRES   REMARKS
EPHRAIM        LGT RAIN  50  49  97 S3        29.98S
WASHINGTON ISL LGT RAIN  50  49  98 CALM      29.97S
STURGEON BAY   RAIN      51  50  96 SW5       30.00S
MANITOWOC      LGT RAIN  51  50  96 SW3       30.03R
SHEBOYGAN      LGT RAIN  51  50  96 CALM      30.02R FOG
$$

LMZ563-521-522-541>543-230000-
LAKESHORE

STATION/POSITION TIME  TEMP    WIND        PRES    VSBY  WAVE
                       AIR SEA DIR/SP/G                  HT/PER
                 (UTC) (F)     (DEG/KT/KT) (MB)    (MI)  (FT/S)
SHEBOYGAN LKSHOR 2300   51      CALM  /  1 1016.6R
KEWAUNEE LKSHORE 2248          180/  2/  3 1015.2R
NORTHPORT PIER   2240   52        CALM     1014.9S
N MID LAKE BUOY  2250   52 57  280/  6/  8 1016.0R         4/ 7
S GREEN BAY BUOY 2300   51 58  260/  6/  6 1015.3
SISTER BAY LKSHO 2219   53     300/ 12/  9   N/A
MENOMINEE LKSHOR 2248          200/  3/  5 1014.8F
$$




USA.gov is the U.S. government's official web portal to all federal, state and local government web resources and services.